Time,TemperatureF,DewpointF,PressureIn,WindDirection,WindDirectionDegrees,WindSpeedMPH,WindSpeedGustMPH,Humidity,HourlyPrecipIn,Conditions,Clouds,dailyrainin,SolarRadiationWatts/m^2,SoftwareType,DateUTC
2013-09-06 00:13:00,58.0,55.0,31.34,ESE,121,0.0,9.0,88,0.00,,,0.00,0,weatherlink.com 1.10,2013-09-06 06:13:00,
2013-09-06 00:28:00,59.1,54.0,31.33,SE,137,0.0,4.0,82,0.00,,,0.00,0,weatherlink.com 1.10,2013-09-06 06:28:00,
2013-09-06 00:43:00,58.6,53.0,31.34,SSE,162,7.0,8.0,81,0.00,,,0.00,0,weatherlink.com 1.10,2013-09-06 06:43:00,
2013-09-06 00:58:00,59.0,54.0,31.33,South,174,5.0,11.0,84,0.00,,,0.00,0,weatherlink.com 1.10,2013-09-06 06:58:00,
2013-09-06 01:13:00,59.7,54.0,31.36,SSE,157,10.0,11.0,80,0.00,,,0.00,0,weatherlink.com 1.10,2013-09-06 07:13:00,
2013-09-06 01:28:00,61.4,55.0,31.38,SSE,155,10.0,17.0,78,0.00,,,0.00,0,weatherlink.com 1.10,2013-09-06 07:28:00,
2013-09-06 01:43:00,61.4,54.0,31.37,ESE,115,8.0,13.0,77,0.00,,,0.00,0,weatherlink.com 1.10,2013-09-06 07:43:00,
2013-09-06 01:58:00,61.7,54.0,31.38,SSE,150,13.0,15.0,76,0.00,,,0.00,0,weatherlink.com 1.10,2013-09-06 07:58:00,
2013-09-06 02:13:00,61.8,54.0,31.34,WNW,292,8.0,16.0,75,0.00,,,0.00,0,weatherlink.com 1.10,2013-09-06 08:13:00,
2013-09-06 02:28:00,57.7,54.0,31.34,ESE,115,2.0,8.0,86,0.00,,,0.00,0,weatherlink.com 1.10,2013-09-06 08:28:00,
2013-09-06 02:43:00,56.7,54.0,31.36,South,177,3.0,4.0,89,0.00,,,0.00,0,weatherlink.com 1.10,2013-09-06 08:43:00,
2013-09-06 02:58:00,56.1,53.0,31.36,SSE,151,5.0,7.0,89,0.00,,,0.00,0,weatherlink.com 1.10,2013-09-06 08:58:00,
2013-09-06 03:13:00,58.8,54.0,31.36,East,96,0.0,11.0,84,0.00,,,0.00,0,weatherlink.com 1.10,2013-09-06 09:13:00,
2013-09-06 03:28:00,59.1,54.0,31.36,SSE,165,0.0,5.0,82,0.00,,,0.00,0,weatherlink.com 1.10,2013-09-06 09:28:00,
2013-09-06 03:43:00,58.5,54.0,31.36,SSE,165,0.0,2.0,84,0.00,,,0.00,0,weatherlink.com 1.10,2013-09-06 09:43:00,
2013-09-06 03:58:00,58.1,54.0,31.38,SSE,165,0.0,3.0,86,0.00,,,0.00,0,weatherlink.com 1.10,2013-09-06 09:58:00,
2013-09-06 04:13:00,57.6,54.0,31.39,SSE,165,2.0,3.0,87,0.00,,,0.00,0,weatherlink.com 1.10,2013-09-06 10:13:00,
2013-09-06 04:28:00,56.8,54.0,31.38,East,89,0.0,4.0,89,0.01,,,0.01,0,weatherlink.com 1.10,2013-09-06 10:28:00,
2013-09-06 04:43:00,56.0,53.0,31.37,East,82,1.0,4.0,90,0.01,,,0.01,0,weatherlink.com 1.10,2013-09-06 10:43:00,
2013-09-06 04:58:00,56.3,54.0,31.37,SE,137,2.0,4.0,90,0.01,,,0.01,0,weatherlink.com 1.10,2013-09-06 10:58:00,
2013-09-06 05:13:00,56.2,53.0,31.37,SSE,162,2.0,3.0,90,0.01,,,0.01,0,weatherlink.com 1.10,2013-09-06 11:13:00,
2013-09-06 05:28:00,55.5,53.0,31.38,SSE,163,0.0,2.0,91,0.00,,,0.01,0,weatherlink.com 1.10,2013-09-06 11:28:00,
2013-09-06 05:43:00,56.5,54.0,31.37,SSE,163,6.0,7.0,91,0.00,,,0.01,0,weatherlink.com 1.10,2013-09-06 11:43:00,
2013-09-06 05:59:00,56.9,54.0,31.37,SE,132,3.0,10.0,90,0.00,,,0.01,0,weatherlink.com 1.10,2013-09-06 11:59:00,
2013-09-06 06:14:00,56.8,53.0,31.37,SSE,165,2.0,3.0,88,0.00,,,0.01,0,weatherlink.com 1.10,2013-09-06 12:14:00,
2013-09-06 06:29:00,57.0,54.0,31.38,SSE,165,0.0,2.0,88,0.00,,,0.01,0,weatherlink.com 1.10,2013-09-06 12:29:00,
2013-09-06 06:44:00,55.9,53.0,31.39,SSE,165,0.0,2.0,89,0.00,,,0.01,0,weatherlink.com 1.10,2013-09-06 12:44:00,
2013-09-06 06:59:00,55.7,53.0,31.39,SSE,165,0.0,0.0,90,0.00,,,0.01,0,weatherlink.com 1.10,2013-09-06 12:59:00,
2013-09-06 07:14:00,55.7,53.0,31.39,SSE,165,1.0,3.0,90,0.00,,,0.01,5,weatherlink.com 1.10,2013-09-06 13:14:00,
2013-09-06 07:29:00,55.5,53.0,31.39,SSE,165,0.0,1.0,91,0.00,,,0.01,16,weatherlink.com 1.10,2013-09-06 13:29:00,
2013-09-06 07:44:00,55.7,53.0,31.39,SSE,165,0.0,3.0,90,0.00,,,0.01,32,weatherlink.com 1.10,2013-09-06 13:44:00,
2013-09-06 07:59:00,56.1,53.0,31.40,SSE,165,0.0,1.0,90,0.00,,,0.01,70,weatherlink.com 1.10,2013-09-06 13:59:00,
2013-09-06 08:14:00,56.7,54.0,31.41,SSE,165,0.0,2.0,90,0.00,,,0.01,77,weatherlink.com 1.10,2013-09-06 14:14:00,
2013-09-06 08:29:00,56.6,54.0,31.41,SSE,165,0.0,3.0,91,0.00,,,0.01,51,weatherlink.com 1.10,2013-09-06 14:29:00,
2013-09-06 08:44:00,56.6,54.0,31.40,SSE,165,0.0,6.0,91,0.00,,,0.01,76,weatherlink.com 1.10,2013-09-06 14:44:00,
2013-09-06 08:59:00,56.8,54.0,31.41,SSE,165,2.0,4.0,91,0.00,,,0.01,155,weatherlink.com 1.10,2013-09-06 14:59:00,
2013-09-06 09:14:00,56.6,54.0,31.41,SSE,168,1.0,4.0,92,0.00,,,0.01,91,weatherlink.com 1.10,2013-09-06 15:14:00,
2013-09-06 09:29:00,57.6,55.0,31.41,South,170,2.0,3.0,92,0.00,,,0.01,107,weatherlink.com 1.10,2013-09-06 15:29:00,
2013-09-06 09:44:00,57.9,55.0,31.41,South,170,2.0,4.0,91,0.00,,,0.01,199,weatherlink.com 1.10,2013-09-06 15:44:00,
2013-09-06 09:59:00,57.6,55.0,31.41,South,170,0.0,2.0,91,0.00,,,0.01,244,weatherlink.com 1.10,2013-09-06 15:59:00,
2013-09-06 10:14:00,58.6,56.0,31.41,South,170,0.0,3.0,91,0.00,,,0.01,220,weatherlink.com 1.10,2013-09-06 16:14:00,
2013-09-06 10:29:00,59.5,57.0,31.41,WSW,240,2.0,6.0,91,0.00,,,0.01,315,weatherlink.com 1.10,2013-09-06 16:29:00,
2013-09-06 10:44:00,60.1,57.0,31.41,SW,217,3.0,9.0,90,0.00,,,0.01,304,weatherlink.com 1.10,2013-09-06 16:44:00,
2013-09-06 10:59:00,60.6,57.0,31.40,SW,231,4.0,8.0,88,0.00,,,0.01,246,weatherlink.com 1.10,2013-09-06 16:59:00,
2013-09-06 11:14:00,60.3,57.0,31.40,SW,231,1.0,4.0,89,0.00,,,0.01,301,weatherlink.com 1.10,2013-09-06 17:14:00,
2013-09-06 11:29:00,61.6,58.0,31.40,SW,234,2.0,4.0,87,0.00,,,0.01,698,weatherlink.com 1.10,2013-09-06 17:29:00,
2013-09-06 11:44:00,63.0,58.0,31.40,NNW,327,5.0,6.0,84,0.00,,,0.01,587,weatherlink.com 1.10,2013-09-06 17:44:00,
2013-09-06 11:59:00,63.3,58.0,31.39,NW,313,3.0,6.0,82,0.00,,,0.01,615,weatherlink.com 1.10,2013-09-06 17:59:00,
2013-09-06 12:14:00,63.6,58.0,31.39,NW,324,9.0,9.0,81,0.00,,,0.01,642,weatherlink.com 1.10,2013-09-06 18:14:00,
2013-09-06 12:29:00,64.4,57.0,31.38,NNW,347,5.0,8.0,77,0.00,,,0.01,686,weatherlink.com 1.10,2013-09-06 18:29:00,
2013-09-06 12:44:00,66.8,56.0,31.37,NE,40,3.0,8.0,69,0.00,,,0.01,707,weatherlink.com 1.10,2013-09-06 18:44:00,
2013-09-06 12:59:00,68.8,57.0,31.37,NW,323,7.0,8.0,66,0.00,,,0.01,707,weatherlink.com 1.10,2013-09-06 18:59:00,
2013-09-06 13:14:00,70.3,57.0,31.37,NW,321,13.0,16.0,63,0.00,,,0.01,721,weatherlink.com 1.10,2013-09-06 19:14:00,
2013-09-06 13:30:00,70.8,57.0,31.37,North,355,8.0,14.0,63,0.00,,,0.01,731,weatherlink.com 1.10,2013-09-06 19:30:00,
2013-09-06 13:45:00,70.8,57.0,31.36,NNE,13,6.0,12.0,62,0.00,,,0.01,738,weatherlink.com 1.10,2013-09-06 19:45:00,
2013-09-06 14:00:00,69.9,57.0,31.36,NNE,19,9.0,14.0,64,0.00,,,0.01,292,weatherlink.com 1.10,2013-09-06 20:00:00,
2013-09-06 14:15:00,69.7,57.0,31.36,North,5,8.0,16.0,65,0.00,,,0.01,823,weatherlink.com 1.10,2013-09-06 20:15:00,
2013-09-06 14:30:00,70.4,57.0,31.35,North,350,11.0,15.0,62,0.00,,,0.01,870,weatherlink.com 1.10,2013-09-06 20:30:00,
2013-09-06 14:45:00,69.8,57.0,31.35,NNE,20,7.0,17.0,63,0.00,,,0.01,248,weatherlink.com 1.10,2013-09-06 20:45:00,
2013-09-06 15:00:00,69.4,57.0,31.35,North,360,10.0,16.0,64,0.00,,,0.01,193,weatherlink.com 1.10,2013-09-06 21:00:00,
2013-09-06 15:15:00,69.3,57.0,31.34,NNE,19,11.0,15.0,64,0.00,,,0.01,253,weatherlink.com 1.10,2013-09-06 21:15:00,
2013-09-06 15:30:00,71.2,57.0,31.33,NE,36,7.0,14.0,61,0.00,,,0.01,689,weatherlink.com 1.10,2013-09-06 21:30:00,
2013-09-06 15:45:00,72.8,56.0,31.32,North,5,9.0,16.0,56,0.00,,,0.01,675,weatherlink.com 1.10,2013-09-06 21:45:00,
2013-09-06 16:00:00,72.6,55.0,31.32,NNE,17,10.0,17.0,55,0.00,,,0.01,649,weatherlink.com 1.10,2013-09-06 22:00:00,
2013-09-06 16:15:00,73.4,55.0,31.32,NNE,17,11.0,15.0,53,0.00,,,0.01,624,weatherlink.com 1.10,2013-09-06 22:15:00,
2013-09-06 16:30:00,73.9,55.0,31.31,North,5,12.0,16.0,51,0.00,,,0.01,596,weatherlink.com 1.10,2013-09-06 22:30:00,
2013-09-06 16:45:00,74.6,54.0,31.30,North,9,12.0,14.0,49,0.00,,,0.01,566,weatherlink.com 1.10,2013-09-06 22:45:00,
2013-09-06 17:00:00,74.4,53.0,31.30,North,355,6.0,15.0,48,0.00,,,0.01,522,weatherlink.com 1.10,2013-09-06 23:00:00,
2013-09-06 17:15:00,74.5,53.0,31.30,North,360,4.0,15.0,47,0.00,,,0.01,503,weatherlink.com 1.10,2013-09-06 23:15:00,
2013-09-06 17:30:00,74.8,53.0,31.30,NNW,348,10.0,14.0,47,0.00,,,0.01,459,weatherlink.com 1.10,2013-09-06 23:30:00,
2013-09-06 17:45:00,74.9,53.0,31.30,North,360,11.0,16.0,46,0.00,,,0.01,420,weatherlink.com 1.10,2013-09-06 23:45:00,
2013-09-06 18:00:00,74.0,51.0,31.30,North,10,11.0,18.0,45,0.00,,,0.01,383,weatherlink.com 1.10,2013-09-07 00:00:00,
2013-09-06 18:15:00,73.9,52.0,31.30,North,5,10.0,17.0,46,0.00,,,0.01,338,weatherlink.com 1.10,2013-09-07 00:15:00,
2013-09-06 18:30:00,73.6,51.0,31.30,North,360,10.0,19.0,45,0.00,,,0.01,292,weatherlink.com 1.10,2013-09-07 00:30:00,
2013-09-06 18:45:00,73.1,50.0,31.30,North,5,12.0,16.0,45,0.00,,,0.01,237,weatherlink.com 1.10,2013-09-07 00:45:00,
2013-09-06 19:00:00,72.7,50.0,31.31,NNE,13,14.0,20.0,45,0.00,,,0.01,190,weatherlink.com 1.10,2013-09-07 01:00:00,
2013-09-06 19:15:00,72.3,50.0,31.31,NNE,20,10.0,15.0,45,0.00,,,0.01,139,weatherlink.com 1.10,2013-09-07 01:15:00,
2013-09-06 19:30:00,71.4,50.0,31.32,North,360,7.0,17.0,47,0.00,,,0.01,65,weatherlink.com 1.10,2013-09-07 01:30:00,
2013-09-06 19:45:00,70.1,49.0,31.33,NNE,18,7.0,16.0,48,0.00,,,0.01,18,weatherlink.com 1.10,2013-09-07 01:45:00,
2013-09-06 20:00:00,69.4,49.0,31.34,North,355,9.0,17.0,49,0.00,,,0.01,5,weatherlink.com 1.10,2013-09-07 02:00:00,
2013-09-06 20:15:00,69.3,49.0,31.34,NNE,19,7.0,13.0,49,0.00,,,0.01,0,weatherlink.com 1.10,2013-09-07 02:15:00,
2013-09-06 20:30:00,68.6,49.0,31.34,NNE,13,2.0,10.0,50,0.00,,,0.01,0,weatherlink.com 1.10,2013-09-07 02:30:00,
2013-09-06 20:45:00,68.7,49.0,31.35,North,355,9.0,16.0,50,0.00,,,0.01,0,weatherlink.com 1.10,2013-09-07 02:45:00,
2013-09-06 21:00:00,68.1,49.0,31.36,North,5,6.0,12.0,51,0.00,,,0.01,0,weatherlink.com 1.10,2013-09-07 03:00:00,
2013-09-06 21:15:00,67.7,49.0,31.36,North,350,5.0,9.0,51,0.00,,,0.01,0,weatherlink.com 1.10,2013-09-07 03:15:00,
2013-09-06 21:30:00,67.3,49.0,31.37,North,5,3.0,12.0,52,0.00,,,0.01,0,weatherlink.com 1.10,2013-09-07 03:30:00,
2013-09-06 21:45:00,67.1,49.0,31.38,North,5,5.0,9.0,52,0.00,,,0.01,0,weatherlink.com 1.10,2013-09-07 03:45:00,
2013-09-06 22:00:00,66.4,49.0,31.38,NNE,15,7.0,9.0,53,0.00,,,0.01,0,weatherlink.com 1.10,2013-09-07 04:00:00,
2013-09-06 22:15:00,65.4,49.0,31.38,North,360,3.0,7.0,55,0.00,,,0.01,0,weatherlink.com 1.10,2013-09-07 04:15:00,
2013-09-06 22:30:00,64.8,48.0,31.39,North,9,5.0,8.0,55,0.00,,,0.01,0,weatherlink.com 1.10,2013-09-07 04:30:00,
2013-09-06 22:45:00,64.5,48.0,31.39,NNE,22,3.0,8.0,55,0.00,,,0.01,0,weatherlink.com 1.10,2013-09-07 04:45:00,
2013-09-06 23:00:00,64.2,47.0,31.40,NNE,13,3.0,11.0,54,0.00,,,0.01,0,weatherlink.com 1.10,2013-09-07 05:00:00,
2013-09-06 23:15:00,64.4,47.0,31.40,North,10,8.0,11.0,53,0.00,,,0.01,0,weatherlink.com 1.10,2013-09-07 05:15:00,
2013-09-06 23:30:00,63.8,46.0,31.40,NNE,17,12.0,12.0,53,0.00,,,0.01,0,weatherlink.com 1.10,2013-09-07 05:30:00,
2013-09-06 23:45:00,63.5,46.0,31.41,NNE,18,6.0,11.0,53,0.00,,,0.01,0,weatherlink.com 1.10,2013-09-07 05:45:00,